Location: Battersea Observatory
(44.4318°N, 76.3841°W)
Time: 21:44:27
(UTC-05:00)

Tiangong - Visible Passes

Search period start: 05 December 2021 00:00
Search period end: 15 December 2021 00:00
Orbit: 380 x 384 km, 41.5° (Epoch: 05 December)

Date Brightness Start Highest point End Pass type
(mag) Time Alt. Az. Time Alt. Az. Time Alt. Az.
07 Dec 3.7 18:03:39 10° SSE 18:04:07 10° SSE 18:04:07 10° SSE visible
08 Dec 3.4 18:37:25 10° SW 18:38:44 18° SSW 18:38:44 18° SSW visible
09 Dec 3.3 17:37:36 10° SSW 17:39:39 16° SSE 17:41:07 12° ESE visible
09 Dec 4.4 19:12:58 10° WSW 19:13:17 12° WSW 19:13:17 12° WSW visible
10 Dec 2.2 18:12:38 10° SW 18:15:30 32° SSE 18:15:36 32° SSE visible
11 Dec 2.9 17:12:27 10° SSW 17:15:02 23° SSE 17:17:37 10° ESE visible
11 Dec 3.2 18:48:24 10° WSW 18:50:02 26° SW 18:50:02 26° SW visible
12 Dec 2.0 17:47:54 10° WSW 17:50:54 40° S 17:52:17 25° ESE visible
12 Dec 4.8 19:24:24 10° W 19:24:26 10° W 19:24:26 10° W visible
13 Dec 1.7 18:23:47 10° WSW 18:26:40 48° SSW 18:26:40 48° SSW visible
14 Dec 1.8 17:23:10 10° WSW 17:26:14 47° S 17:28:54 13° ESE visible
14 Dec 3.8 18:59:48 10° W 19:01:03 20° WSW 19:01:03 20° WSW visible
